Find Kosmos-2390

NORAD ID: 27464 Int'l Des: 2002-036 Owner: KVR Country: RU operational
LEOCIRCULARPOLAR

リアルタイム位置

3D地球を読み込み中...

Kosmos-2390について

説明を読み込み中...

次回通過

Passes for default location (London). Set your location on the main map for personalized predictions.

高度履歴

Loading altitude history...

軌道要素

1 27464U 02036A 26104.61815134 .00000016 00000-0 44926-4 0 9992
2 27464 82.4881 24.6998 0026484 38.8809 321.4170 12.44621298 79760
Epoch: Apr 14, 2026 • Age: 9 hours

現在のステータス

高度 1500.4 km
速度 7.11 km/s
衛星直下点 -43.17°S, 170.47°E
打ち上げ日 Jul 8, 2002
運用期間 23.7 years
タイプ other

技術仕様

分類 Payload
質量 225.00 kg
乾燥質量 225.00 kg
総質量 225.00 kg
長さ 1.60 m
直径 0.80 m
スパン 7.00 m
形状 Cyl + Ant
製造者 NPOPMR
バスタイプ Strela-3
フェーズステータス In Orbit
所有者/国 KVR/RU

Most Searched